Location: Newark
(44.6768°N, 22.5302°E)
Time: 17:39:24
(UTC+00:00)

CAS-6 - Pass Details

Date: 04 July 2022
Orbit: 613 x 634 km, 97.9° (Epoch: 19 August)

Event Time Altitude Azimuth Distance (km) Brightness Sun altitude
Exits shadow 20:57:42 38° 189° (S) 960 ? -19.0°
Maximum altitude 20:59:15 66° 258° (WSW) 682 ? -19.1°
Drops below altitude 10° 21:03:35 10° 342° (NNW) 1,999 ? -19.4°
Sets 21:05:48 0° 345° (NNW) 2,907 ? -19.5°
